| time (UTC) | temp C | wind direction | speed KPH | gust KPH | rain 1hr cm | rain 24hr cm | rain mn cm | humidity % | barometer mb |
| 20260508024535 | 8 | 223 | 6.4 | 9.7 | 0.00 | 0.00 | 0.00 | 97 | 944.3 |
| 20260508023034 | 7 | 207 | 1.6 | 3.2 | 0.00 | 0.00 | 0.00 | 96 | 944.3 |
| 20260508021531 | 7 | 260 | 1.6 | 4.8 | 0.00 | 0.00 | 0.00 | 97 | 944.4 |
| 20260508020040 | 7 | 140 | 0.0 | 3.2 | 0.00 | 0.00 | 0.00 | 96 | 944.3 |
| 20260508014530 | 7 | 119 | 0.0 | 1.6 | 0.00 | 0.00 | 0.00 | 96 | 944.4 |
| 20260508013029 | 7 | 119 | 0.0 | 3.2 | 0.00 | 0.00 | 0.00 | 95 | 944.3 |
| 20260508011526 | 7 | 204 | 0.0 | 4.8 | 0.00 | 0.00 | 0.00 | 96 | 944.4 |
| 20260508010027 | 7 | 99 | 1.6 | 4.8 | 0.00 | 0.00 | 0.00 | 95 | 944.6 |
| 20260508004523 | 7 | 150 | 0.0 | 3.2 | 0.00 | 0.00 | 0.00 | 95 | 944.7 |
| 20260508003021 | 7 | 94 | 0.0 | 3.2 | 0.00 | 0.00 | 0.00 | 94 | 944.7 |
| 20260508001536 | 8 | 96 | 0.0 | 4.8 | 0.00 | 0.00 | 0.00 | 94 | 944.8 |
| 20260508000016 | 8 | 105 | 0.0 | 3.2 | 0.00 | 0.00 | 0.00 | 93 | 944.8 |
| 20260507234517 | 8 | 105 | 0.0 | 1.6 | 0.00 | 0.00 | 0.00 | 92 | 944.9 |
| 20260507233017 | 8 | 105 | 0.0 | 3.2 | 0.00 | 0.00 | 0.00 | 92 | 944.7 |
| 20260507231510 | 8 | 105 | 1.6 | 3.2 | 0.00 | 0.00 | 0.00 | 91 | 944.8 |
| 20260507230009 | 9 | 111 | 1.6 | 4.8 | 0.00 | 0.00 | 0.00 | 89 | 945.0 |
| 20260507224507 | 10 | 263 | 1.6 | 6.4 | 0.00 | 0.00 | 0.00 | 89 | 945.1 |
| 20260507223004 | 10 | 188 | 3.2 | 4.8 | 0.00 | 0.00 | 0.00 | 89 | 945.1 |
| 20260507221601 | 10 | 183 | 0.0 | 8.0 | 0.00 | 0.00 | 0.00 | 92 | 945.0 |
| 20260507220055 | 9 | 180 | 3.2 | 8.0 | 0.00 | 0.00 | 0.00 | 93 | 945.0 |
| 20260507214600 | 8 | 125 | 0.0 | 1.6 | 0.00 | 0.00 | 0.00 | 92 | 945.0 |
| 20260507213055 | 9 | 38 | 0.0 | 6.4 | 0.00 | 0.00 | 0.00 | 91 | 945.0 |
| 20260507211555 | 10 | 66 | 3.2 | 4.8 | 0.00 | 0.00 | 0.00 | 90 | 944.9 |
| 20260507210055 | 9 | 103 | 1.6 | 4.8 | 0.00 | 0.00 | 0.00 | 89 | 944.8 |
| 20260507204558 | 10 | 56 | 3.2 | 6.4 | 0.00 | 0.00 | 0.00 | 88 | 944.6 |
| 20260507203053 | 10 | 70 | 3.2 | 4.8 | 0.00 | 0.00 | 0.00 | 87 | 944.5 |
| 20260507201558 | 11 | 88 | 3.2 | 4.8 | 0.00 | 0.00 | 0.00 | 85 | 944.3 |
| 20260507200101 | 11 | 42 | 3.2 | 4.8 | 0.00 | 0.00 | 0.00 | 82 | 944.2 |
| 20260507194552 | 12 | 96 | 3.2 | 8.0 | 0.00 | 0.00 | 0.00 | 79 | 944.0 |
| 20260507193053 | 12 | 80 | 1.6 | 3.2 | 0.00 | 0.00 | 0.00 | 78 | 943.8 |
| 20260507191556 | 13 | 109 | 3.2 | 4.8 | 0.00 | 0.00 | 0.00 | 76 | 943.8 |
| 20260507190054 | 13 | 165 | 3.2 | 8.0 | 0.00 | 0.00 | 0.00 | 72 | 944.0 |
| 20260507184552 | 13 | 215 | 4.8 | 11.3 | 0.00 | 0.00 | 0.00 | 74 | 943.9 |
| 20260507183051 | 13 | 202 | 1.6 | 9.7 | 0.00 | 0.00 | 0.00 | 76 | 943.9 |
| 20260507181559 | 14 | 159 | 1.6 | 4.8 | 0.00 | 0.00 | 0.00 | 77 | 943.9 |
| 20260507180048 | 15 | 98 | 3.2 | 8.0 | 0.00 | 0.00 | 0.00 | 73 | 943.9 |
| 20260507174554 | 15 | 333 | 1.6 | 9.7 | 0.00 | 0.00 | 0.00 | 72 | 943.9 |
| 20260507173047 | 16 | 17 | 1.6 | 8.0 | 0.00 | 0.00 | 0.00 | 66 | 943.7 |
| 20260507171548 | 17 | 167 | 3.2 | 9.7 | 0.00 | 0.00 | 0.00 | 57 | 943.5 |
| 20260507170050 | 17 | 111 | 4.8 | 9.7 | 0.00 | 0.00 | 0.00 | 57 | 943.5 |
| 20260507164546 | 17 | 136 | 3.2 | 8.0 | 0.00 | 0.00 | 0.00 | 56 | 943.5 |
| 20260507163044 | 17 | 118 | 3.2 | 8.0 | 0.00 | 0.00 | 0.00 | 54 | 943.6 |
| 20260507161545 | 17 | 96 | 4.8 | 8.0 | 0.00 | 0.00 | 0.00 | 52 | 943.7 |
| 20260507160043 | 17 | 109 | 6.4 | 12.9 | 0.00 | 0.00 | 0.00 | 50 | 943.4 |
| 20260507154547 | 17 | 153 | 4.8 | 19.3 | 0.00 | 0.00 | 0.00 | 54 | 943.2 |
| 20260507153048 | 17 | 140 | 6.4 | 22.5 | 0.00 | 0.00 | 0.00 | 56 | 942.8 |
| 20260507151537 | 17 | 138 | 8.0 | 17.7 | 0.00 | 0.00 | 0.00 | 61 | 943.2 |
| 20260507150039 | 17 | 113 | 11.3 | 19.3 | 0.00 | 0.00 | 0.00 | 60 | 943.6 |
| 20260507144534 | 17 | 128 | 6.4 | 19.3 | 0.00 | 0.00 | 0.00 | 57 | 943.8 |
| 20260507143035 | 17 | 127 | 9.7 | 29.0 | 0.00 | 0.00 | 0.00 | 60 | 943.9 |
| 20260507141531 | 17 | 117 | 9.7 | 22.5 | 0.00 | 0.00 | 0.00 | 62 | 943.9 |
| 20260507140030 | 17 | 154 | 17.7 | 29.0 | 0.00 | 0.00 | 0.00 | 59 | 944.0 |
| 20260507134531 | 17 | 143 | 9.7 | 17.7 | 0.00 | 0.00 | 0.00 | 63 | 944.1 |
| 20260507133027 | 16 | 207 | 3.2 | 14.5 | 0.00 | 0.00 | 0.00 | 66 | 944.2 |
| 20260507131534 | 16 | 128 | 9.7 | 22.5 | 0.00 | 0.00 | 0.00 | 66 | 944.6 |
| 20260507130022 | 16 | 150 | 11.3 | 25.7 | 0.00 | 0.00 | 0.00 | 64 | 944.9 |
| 20260507124520 | 15 | 186 | 12.9 | 24.1 | 0.00 | 0.00 | 0.00 | 72 | 945.2 |
| 20260507123021 | 15 | 207 | 16.1 | 33.8 | 0.00 | 0.00 | 0.00 | 67 | 945.4 |
| 20260507121520 | 17 | 155 | 11.3 | 20.9 | 0.00 | 0.00 | 0.00 | 61 | 945.4 |
| 20260507120033 | 17 | 165 | 8.0 | 19.3 | 0.00 | 0.00 | 0.00 | 59 | 945.1 |
| 20260507114518 | 17 | 199 | 11.3 | 20.9 | 0.00 | 0.00 | 0.00 | 60 | 945.3 |
| 20260507113015 | 17 | 111 | 12.9 | 22.5 | 0.00 | 0.00 | 0.00 | 61 | 945.2 |
| 20260507111514 | 17 | 118 | 4.8 | 14.5 | 0.00 | 0.00 | 0.00 | 59 | 945.3 |
| 20260507110009 | 16 | 194 | 4.8 | 12.9 | 0.00 | 0.00 | 0.00 | 65 | 945.4 |
| 20260507104510 | 16 | 186 | 8.0 | 17.7 | 0.00 | 0.00 | 0.00 | 66 | 945.4 |
| 20260507103100 | 15 | 167 | 4.8 | 17.7 | 0.00 | 0.00 | 0.00 | 69 | 945.4 |
| 20260507101604 | 13 | 198 | 4.8 | 14.5 | 0.00 | 0.00 | 0.00 | 85 | 945.7 |
| 20260507100051 | 12 | 290 | 6.4 | 11.3 | 0.00 | 0.00 | 0.00 | 95 | 946.0 |
| 20260507094547 | 11 | 261 | 3.2 | 8.0 | 0.00 | 0.00 | 0.00 | 99 | 946.1 |
| 20260507093051 | 10 | 278 | 3.2 | 8.0 | 0.00 | 0.00 | 0.00 | 99 | 946.2 |
| 20260507091541 | 9 | 275 | 4.8 | 8.0 | 0.00 | 0.00 | 0.00 | 100 | 946.4 |
| 20260507090037 | 8 | 289 | 3.2 | 8.0 | 0.00 | 0.00 | 0.00 | 99 | 946.5 |
| 20260507084533 | 8 | 240 | 4.8 | 8.0 | 0.00 | 0.00 | 0.00 | 99 | 946.5 |
| 20260507083029 | 7 | 288 | 1.6 | 4.8 | 0.00 | 0.00 | 0.00 | 99 | 946.6 |
| 20260507081539 | 7 | 223 | 0.0 | 8.0 | 0.00 | 0.00 | 0.00 | 99 | 946.7 |
| 20260507080024 | 7 | 208 | 1.6 | 4.8 | 0.00 | 0.00 | 0.00 | 99 | 946.7 |
| 20260507074544 | 6 | 176 | 1.6 | 4.8 | 0.00 | 0.00 | 0.00 | 99 | 946.7 |
| 20260507073022 | 6 | 244 | 1.6 | 4.8 | 0.00 | 0.00 | 0.00 | 99 | 946.7 |
| 20260507071521 | 6 | 59 | 0.0 | 3.2 | 0.00 | 0.00 | 0.00 | 99 | 946.8 |
| 20260507070021 | 6 | 120 | 0.0 | 4.8 | 0.00 | 0.00 | 0.00 | 99 | 946.8 |
| 20260507064519 | 6 | 128 | 1.6 | 4.8 | 0.00 | 0.00 | 0.00 | 99 | 946.7 |
| 20260507063023 | 6 | 122 | 1.6 | 6.4 | 0.00 | 0.00 | 0.00 | 99 | 946.8 |
| 20260507061515 | 5 | 127 | 1.6 | 4.8 | 0.00 | 0.00 | 0.00 | 99 | 946.9 |
| 20260507060012 | 5 | 116 | 1.6 | 8.0 | 0.00 | 0.00 | 0.00 | 98 | 946.8 |
| 20260507054514 | 5 | 117 | 4.8 | 8.0 | 0.00 | 0.00 | 0.00 | 99 | 946.8 |
| 20260507053011 | 5 | 119 | 1.6 | 8.0 | 0.00 | 0.00 | 0.00 | 99 | 946.7 |
| 20260507051508 | 5 | 74 | 0.0 | 4.8 | 0.00 | 0.00 | 0.00 | 98 | 946.8 |
| 20260507050022 | 5 | 111 | 3.2 | 4.8 | 0.00 | 0.00 | 0.00 | 98 | 946.8 |
| 20260507044506 | 5 | 97 | 1.6 | 3.2 | 0.00 | 0.00 | 0.00 | 98 | 946.9 |
| 20260507043005 | 5 | 298 | 0.0 | 3.2 | 0.00 | 0.00 | 0.00 | 98 | 947.0 |
| 20260507041504 | 5 | 258 | 0.0 | 4.8 | 0.00 | 0.00 | 0.00 | 99 | 947.0 |
| 20260507040006 | 5 | 167 | 0.0 | 3.2 | 0.00 | 0.00 | 0.00 | 98 | 946.9 |
| 20260507034501 | 5 | 131 | 3.2 | 8.0 | 0.00 | 0.00 | 0.00 | 98 | 947.2 |
| 20260507033001 | 5 | 117 | 1.6 | 4.8 | 0.00 | 0.00 | 0.00 | 98 | 947.4 |
| 20260507031609 | 5 | 54 | 0.0 | 3.2 | 0.00 | 0.00 | 0.00 | 98 | 947.0 |
| 20260507030101 | 5 | 68 | 1.6 | 3.2 | 0.00 | 0.00 | 0.00 | 97 | 947.1 |